|
NORAD ID: 35486 Int'l Code: 1997-051QG
Perigee: 709.9 km
Apogee: 783.6 km
Inclination: 86.4 °
Period: 99.6 minutes
Semi major axis: 7117 km
Launch date: September 14, 1997
Source: United States (US)
Note: This is SATELLITE DEBRIS
Two Line Element Set (TLE):
1 35486U 97051QG 13137.18820484 .00014650 00000-0 40582-2 0 6510
2 35486 086.4088 196.0406 0051809 048.4390 013.3734 14.45732972211862
Source:
NASA's NSSDC Master Catalog entry for IRIDIUM 33 DEB
|